Location: Shepherdstown, WV
(39.4326°N, 77.8042°W)
Time: 18:11:02
(UTC-04:00)

X-37B - Pass Details

Date: 26 June 2021
Orbit: 383 x 392 km, 45.0° (Epoch: 01 July)

Event Time Altitude Azimuth Distance (km) Brightness Sun altitude
Rises 23:56:16 0° 288° (WNW) 2,255 5.0 -24.6°
Reaches altitude 10° 23:58:31 10° 301° (WNW) 1,402 4.0 -24.8°
Enters shadow 00:00:53 27° 347° (NNW) 779 2.8 -24.9°
